Date String (YYYY-MM-DD hh:mm:ss) UTC,Instrument flags,Ambient pressure (hPa),Sample flow (lpm),Bypass flow (lpm),Sample temperature (°C),Ambient temperature (°C),ASC tube jacket temperature (°C),LED temperature (°C),Box temperature (°C),Sample RH (%),Span deviation,Mass concentration (μg/m³),Mass concentration (μg/m³),Mass concentration (μg/m³)
DateTimeUTC,F1_M11,P_M11,Q1_M11,Q2_M11,T1_M11,T2_M11,T3_M11,T4_M11,T5_M11,U1_M11,ZSPAN_M11,X2_M11,X0_M11,X1_M11
2022-03-25 13:00:00,,0831.6,4.98,0.00,26.3,25.3,00.0,35.3,28.1,12.9,0000.0,0002.77,0007.72,0001.37
2022-03-25 13:01:00,,0831.7,5.00,0.00,26.3,25.2,00.0,35.3,28.1,12.9,0000.0,0002.75,0008.03,0001.38
2022-03-25 13:02:00,,0831.6,5.00,0.00,26.3,25.3,00.0,35.3,28.1,12.9,0000.0,0002.78,0008.03,0001.39
2022-03-25 13:03:00,,0831.7,5.01,0.00,26.3,25.3,00.0,35.2,28.1,13.0,0000.0,0002.76,0007.84,0001.38
2022-03-25 13:04:00,,0831.6,5.00,0.00,26.3,25.3,00.0,35.2,28.1,13.0,0000.0,0002.75,0007.67,0001.39
2022-03-25 13:05:00,,0831.7,5.00,0.00,26.3,25.3,00.0,35.3,28.1,12.9,0000.0,0002.68,0007.59,0001.39
2022-03-25 13:06:00,,0831.7,5.00,0.00,26.3,25.3,00.0,35.3,28.1,13.0,0000.0,0002.66,0007.50,0001.39
2022-03-25 13:07:00,,0831.7,5.00,0.00,26.3,25.3,00.0,35.3,28.1,13.0,0000.0,0002.60,0007.40,0001.39
2022-03-25 13:08:00,,0831.7,4.99,0.00,26.3,25.3,00.0,35.3,28.1,13.0,0000.0,0002.61,0007.48,0001.40
2022-03-25 13:09:00,,0831.7,5.00,0.00,26.3,25.2,00.0,35.3,28.1,13.0,0000.0,0002.70,0007.70,0001.41
2022-03-25 13:10:00,,0831.7,5.00,0.00,26.3,25.2,00.0,35.2,28.1,13.0,0000.0,0002.72,0007.82,0001.41
2022-03-25 13:11:00,,0831.7,5.00,0.00,26.3,25.2,00.0,35.2,28.1,13.0,0000.0,0002.82,0007.93,0001.41
2022-03-25 13:12:00,,0831.7,4.99,0.00,26.3,25.2,00.0,35.2,28.0,13.0,0000.0,0002.86,0007.60,0001.42
2022-03-25 13:13:00,,0831.7,4.99,0.00,26.3,25.2,00.0,35.2,28.1,13.0,0000.0,0002.82,0007.39,0001.42
2022-03-25 13:14:00,,0831.8,5.01,0.00,26.3,25.2,00.0,35.2,28.0,13.0,0000.0,0002.84,0007.37,0001.43
2022-03-25 13:15:00,,0831.9,4.99,0.00,26.2,25.2,00.0,35.2,28.0,13.1,0000.0,0002.88,0007.69,0001.43
2022-03-25 13:16:00,,0831.9,5.00,0.00,26.2,25.2,00.0,35.2,28.0,13.1,0000.0,0002.89,0007.71,0001.42
2022-03-25 13:17:00,,0831.9,5.00,0.00,26.2,25.2,00.0,35.2,28.0,13.1,0000.0,0002.88,0007.77,0001.42
2022-03-25 13:18:00,,0832.0,4.99,0.00,26.2,25.2,00.0,35.2,28.0,13.1,0000.0,0002.83,0007.76,0001.42
2022-03-25 13:19:00,,0832.0,4.99,0.00,26.2,25.2,00.0,35.2,28.0,13.1,0000.0,0002.81,0007.67,0001.41
2022-03-25 13:20:00,,0832.0,4.99,0.00,26.2,25.2,00.0,35.2,28.0,13.2,0000.0,0002.71,0007.43,0001.39
2022-03-25 13:21:00,,0832.0,5.00,0.00,26.2,25.2,00.0,35.2,28.0,13.1,0000.0,0002.63,0007.06,0001.38
2022-03-25 13:22:00,,0832.0,5.01,0.00,26.2,25.2,00.0,35.2,28.0,13.2,0000.0,0002.53,0006.77,0001.38
2022-03-25 13:23:00,,0832.1,5.00,0.00,26.2,25.2,00.0,35.2,28.0,13.2,0000.0,0002.42,0006.48,0001.37
2022-03-25 13:24:00,,0832.1,5.00,0.00,26.2,25.2,00.0,35.2,28.0,13.3,0000.0,0002.41,0006.54,0001.36
2022-03-25 13:25:00,,0832.1,5.01,0.00,26.2,25.2,00.0,35.2,28.0,13.3,0000.0,0002.41,0006.96,0001.35
2022-03-25 13:26:00,,0832.1,5.00,0.00,26.2,25.2,00.0,35.2,28.0,13.3,0000.0,0002.43,0007.89,0001.36
2022-03-25 13:27:00,,0832.1,5.00,0.00,26.2,25.1,00.0,35.2,28.0,13.3,0000.0,0002.50,0007.83,0001.37
2022-03-25 13:28:00,,0832.1,4.98,0.00,26.2,25.1,00.0,35.2,27.9,13.3,0000.0,0002.62,0007.99,0001.37
2022-03-25 13:29:00,,0832.1,5.00,0.00,26.2,25.1,00.0,35.2,27.9,13.4,0000.0,0002.65,0008.35,0001.36
2022-03-25 13:30:00,,0832.1,5.00,0.00,26.2,25.1,00.0,35.2,27.9,13.4,0000.0,0002.65,0008.89,0001.36
2022-03-25 13:31:00,,0832.1,5.00,0.00,26.1,25.1,00.0,35.1,27.9,13.4,0000.0,0002.65,0011.00,0001.35
2022-03-25 13:32:00,,0832.1,5.00,0.00,26.1,25.1,00.0,35.1,27.9,13.5,0000.0,0002.72,0011.35,0001.34
2022-03-25 13:33:00,,0832.1,5.00,0.00,26.1,25.1,00.0,35.1,27.9,13.6,0000.0,0002.69,0011.33,0001.33
2022-03-25 13:34:00,,0832.2,5.00,0.00,26.1,25.1,00.0,35.1,27.9,13.6,0000.0,0002.73,0012.77,0001.33
2022-03-25 13:35:00,,0832.1,5.00,0.00,26.1,25.1,00.0,35.1,27.9,13.6,0000.0,0002.75,0012.80,0001.33
2022-03-25 13:36:00,,0832.2,5.00,0.00,26.1,25.0,00.0,35.1,27.9,13.6,0000.0,0002.67,0012.95,0001.32
2022-03-25 13:37:00,,0832.1,5.00,0.00,26.1,25.0,00.0,35.1,27.9,13.6,0000.0,0002.58,0011.79,0001.33
2022-03-25 13:38:00,,0832.1,4.99,0.00,26.1,25.0,00.0,35.1,27.9,13.6,0000.0,0002.52,0011.92,0001.32
2022-03-25 13:39:00,,0832.1,5.00,0.00,26.1,25.0,00.0,35.1,27.9,13.7,0000.0,0002.44,0012.25,0001.31
2022-03-25 13:40:00,,0832.2,5.00,0.00,26.1,25.0,00.0,35.1,27.9,13.7,0000.0,0002.47,0012.24,0001.32
2022-03-25 13:41:00,,0832.1,5.00,0.00,26.1,25.0,00.0,35.1,27.9,13.7,0000.0,0002.50,0013.37,0001.32
2022-03-25 13:42:00,,0832.2,5.00,0.00,26.1,25.0,00.0,35.1,27.9,13.7,0000.0,0002.59,0011.35,0001.34
2022-03-25 13:43:00,,0832.1,5.01,0.00,26.1,25.0,00.0,35.1,27.9,13.7,0000.0,0002.62,0011.06,0001.35
2022-03-25 13:44:00,,0832.1,5.00,0.00,26.1,25.0,00.0,35.1,27.9,13.8,0000.0,0002.70,0011.39,0001.38
2022-03-25 13:45:00,,0832.1,5.00,0.00,26.0,25.0,00.0,35.0,27.8,13.8,0000.0,0002.71,0010.37,0001.38
2022-03-25 13:46:00,,0832.1,4.99,0.00,26.0,25.0,00.0,35.0,27.8,13.9,0000.0,0002.67,0010.25,0001.38
2022-03-25 13:47:00,,0832.1,4.99,0.00,26.0,25.0,00.0,35.0,27.8,13.9,0000.0,0002.80,0010.19,0001.40
2022-03-25 13:48:00,,0832.1,5.00,0.00,26.0,25.0,00.0,35.0,27.8,13.9,0000.0,0002.92,0010.24,0001.40
2022-03-25 13:49:00,,0832.1,5.00,0.00,26.0,24.9,00.0,35.0,27.8,13.9,0000.0,0002.99,0009.99,0001.42
2022-03-25 13:50:00,,0832.1,5.00,0.00,26.0,25.0,00.0,35.0,27.8,13.9,0000.0,0003.04,0009.58,0001.44
2022-03-25 13:51:00,,0832.1,5.00,0.00,26.0,25.0,00.0,35.0,27.8,13.8,0000.0,0003.12,0009.49,0001.46
2022-03-25 13:52:00,,0832.1,5.00,0.00,26.0,25.0,00.0,35.0,27.8,13.7,0000.0,0003.18,0008.29,0001.48
2022-03-25 13:53:00,,0832.1,5.00,0.00,26.0,25.0,00.0,35.0,27.8,13.6,0000.0,0003.20,0008.17,0001.48
2022-03-25 13:54:00,,0832.1,4.99,0.00,26.0,25.0,00.0,35.0,27.8,13.7,0000.0,0003.22,0008.68,0001.48
2022-03-25 13:55:00,,0832.1,5.00,0.00,26.0,24.9,00.0,35.0,27.7,13.9,0000.0,0003.25,0009.22,0001.47
2022-03-25 13:56:00,,0832.1,5.00,0.00,25.9,24.8,00.0,35.0,27.7,13.8,0000.0,0003.30,0009.58,0001.48
2022-03-25 13:57:00,,0832.1,5.00,0.00,25.9,24.8,00.0,35.0,27.7,13.7,0000.0,0003.35,0009.87,0001.49
2022-03-25 13:58:00,,0832.1,5.00,0.00,25.9,24.8,00.0,35.0,27.7,13.7,0000.0,0003.36,0009.85,0001.48
2022-03-25 13:59:00,,0832.1,5.00,0.00,25.9,24.8,00.0,34.9,27.6,13.8,0000.0,0003.38,0009.80,0001.48
